GOES 19

Last updated on Wed Aug 19 2026 00:02:41 GMT+0000 (Coordinated Universal Time)

1 60133U 24119A 26230.48104772 -.00000253 00000+0 00000+0 0 9995 2 60133 0.0055 317.4274 0000269 268.8307 198.5602 1.00272428 7581
UTC large
Height (km)
Speed (km/s)
/
Latitude / Longitude
Inclination (degrees)
Orbital Period (minutes)
Azimuth
Elevation
Range (km)
Doppler Factor

Next 0 passes for location: London (51.5072 / 0.1276)

No passes found over London.
GOES 19